{"data":{"norad_id":56396,"epoch":"2026-05-24T23:24:47.425824Z","epoch_age_seconds":73052,"freshness":"FRESH","line1":"1 56396U 23061Y   26144.97554891  .00001007  00000+0  46122-4 0  9992","line2":"2 56396  43.0031 116.0418 0001394 281.7202  78.3493 15.27575072163670","mean_motion":15.27575072,"eccentricity":0.0001394,"inclination_deg":43.0031,"raan_deg":116.0418,"arg_perigee_deg":281.7202,"mean_anomaly_deg":78.3493,"bstar":4.6122e-5,"rev_number":16367,"period_min":94.267052820825,"perigee_km":482.10740088535,"apogee_km":484.02030368297,"semimajor_km":6861.2008522842,"source":"CELESTRAK","updated_at":"2026-05-25T13:38:18.014730Z"}}